History for Norfolk, VA on Friday, July 25, 2014

Jump to data by:

Latest visited Airport Codes: KORF

Data type:
 

« Previous Day | Next Day »

 
Daily Summary
Actual Average Record
Temperature
Mean Temperature 74 °F 80 °F  
Max Temperature 79 °F 87 °F 105 °F (2010)
Min Temperature 70 °F 72 °F 59 °F (1947)
Degree Days
Heating Degree Days 0 0  
Month to date heating degree days 0  
Since 1 June heating degree days 6  
Since 1 July heating degree days 0  
Cooling Degree Days 10 15  
Month to date cooling degree days 369  
Year to date cooling degree days 850  
Since 1 June cooling degree days 684  
Growing Degree Days 24 (Base 50)    
Moisture
Dew Point 66 °F    
Average Humidity 79    
Maximum Humidity 93    
Minimum Humidity 44    
Precipitation
Precipitation 0.04 in 0.19 in 3.46 in (1994)
Month to date precipitation 4.00  
Year to date precipitation 25.28  
Snow
Snow - 0.00 in 0.00 in (2002)
Month to date snowfall 0.0  
Since 1 July snowfall 0.0  
Snow Depth -    
Sea Level Pressure
Sea Level Pressure 29.98 in    
Wind
Wind Speed 5 mph ()    
Max Wind Speed 14 mph    
Max Gust Speed -    
Visibility 8.8 miles    
Events Rain   
Key: T is trace of precipitation, MM is missing value
Source: Averaged Metar Reports
Time (EDT) Temp. Dew Point Humidity Sea Level Pressure Visibility Wind Direction Wind Speed Gust Speed Precip. Events Conditions
12:51 AM 72.0 °F 70.0 °F 93% 29.91 in 8.0 miles West 3.5 mph - N/A   Clear
1:41 AM 73.0 °F 69.1 °F 87% 29.93 in 10.0 miles West 5.8 mph - N/A   Mostly Cloudy
1:51 AM 73.0 °F 70.0 °F 90% 29.93 in 10.0 miles Variable 3.5 mph - N/A   Mostly Cloudy
2:22 AM 72.0 °F 69.1 °F 91% 29.93 in 5.0 miles Variable 3.5 mph - 0.00 in Rain Light Rain
2:29 AM 72.0 °F 69.1 °F 91% 29.94 in 7.0 miles NW 3.5 mph - 0.01 in Rain Light Rain
2:33 AM 72.0 °F 69.1 °F 91% 29.94 in 10.0 miles NNW 4.6 mph - 0.01 in   Overcast
2:51 AM 72.0 °F 69.1 °F 91% 29.95 in 4.0 miles NW 4.6 mph - 0.02 in Rain Rain
3:19 AM 71.1 °F 69.1 °F 93% 29.95 in 8.0 miles NW 4.6 mph - 0.01 in   Overcast
3:37 AM 71.1 °F 68.0 °F 90% 29.95 in 6.0 miles NW 4.6 mph - 0.01 in Rain Light Rain
3:51 AM 71.1 °F 68.0 °F 90% 29.95 in 10.0 miles NW 4.6 mph - 0.02 in   Overcast
4:51 AM 71.6 °F 66.2 °F 83% 29.96 in 10.0 miles NW 4.6 mph - N/A   Overcast
5:51 AM 70.0 °F 66.9 °F 90% 29.97 in 10.0 miles NW 3.5 mph - N/A   Clear
6:51 AM 71.1 °F 68.0 °F 90% 29.99 in 10.0 miles Calm Calm - N/A   Scattered Clouds
7:51 AM 75.0 °F 62.1 °F 64% 30.02 in 10.0 miles NNE 13.8 mph - N/A   Clear
8:51 AM 75.9 °F 64.0 °F 67% 30.04 in 10.0 miles NNE 10.4 mph - N/A   Clear
9:51 AM 77.0 °F 62.1 °F 60% 30.04 in 10.0 miles North 12.7 mph - N/A   Clear
10:51 AM 78.1 °F 59.0 °F 52% 30.05 in 10.0 miles North 13.8 mph - N/A   Clear
11:51 AM 79.0 °F 57.0 °F 47% 30.06 in 10.0 miles North 11.5 mph - N/A   Clear
12:51 PM 79.0 °F 55.0 °F 44% 30.06 in 10.0 miles North 8.1 mph - N/A   Clear

Powered by the Weather Underground, Inc.